Simultaneous Nadir Overpasses (SNOs) Predictions

Prediction of SNOs between NPP and TERRA Satellite Orbit:

Table of predicted SNOs for the next 14.0 days since TLE Epoch: 3/8/2014
Index Date (NPP) Time (NPP) Lat,Lon (NPP) SZA (NPP ) Date (TERRA) Time (TERRA) Lat,Lon (TERRA) SZA (TERRA ) Distance(km) Time Diff (sec)
1 03/10/2014 08:10:46 -68.76,-123.79 107.22 03/10/2014 08:11:53 -68.79,-123.77 107.21 3.04 67
2 03/10/2014 09:01:30 68.64, 43.67 72.65 03/10/2014 09:01:21 68.62, 43.67 72.62 3.09 9
3 03/10/2014 09:52:06 -68.28,-148.53 107.74 03/10/2014 09:50:53 -68.34,-149.04 107.67 21.57 73
4 03/13/2014 00:27:40 -68.69, -7.92 108.35 03/13/2014 00:28:18 -68.70, -7.97 108.35 2.22 38
5 03/13/2014 01:18:24 68.58, 159.54 71.53 03/13/2014 01:17:45 68.58, 159.52 71.53 0.71 39
6 03/15/2014 15:53:58 69.00, -59.87 70.93 03/15/2014 15:55:09 68.95, -59.39 70.85 20.32 71
7 03/15/2014 16:44:36 -68.69, 107.87 109.41 03/15/2014 16:44:42 -68.68, 107.91 109.43 1.86 6
8 03/15/2014 17:35:19 68.52, -84.60 70.41 03/15/2014 17:34:09 68.56, -84.60 70.44 3.45 70
9 03/18/2014 08:10:49 68.74, 56.27 69.59 03/18/2014 08:11:36 68.72, 56.23 69.57 2.87 47
10 03/18/2014 09:01:31 -68.64,-136.28 110.53 03/18/2014 09:01:06 -68.62,-136.26 110.55 2.33 25
11 03/20/2014 23:37:13 -69.49, 3.69 110.68 03/20/2014 23:38:22 -69.35, 5.31 110.87 65.23 69
12 03/21/2014 00:27:44 68.70, 172.11 68.49 03/21/2014 00:27:58 68.72, 172.15 68.51 3.13 14
13 03/21/2014 01:18:26 -68.59, -20.43
